www.pogodaiklimat.ru

Погода и климат >> Архив погоды >> Италия >> Феррара


ПОГОДА в Ферраре

  • Прогноз погоды в Ферраре
  • Монитор погоды в Ферраре

АРХИВ ПОГОДЫ в Ферраре

Время (UTC), дата Ветер
(напр.,м/с)
 
Видим.   Явления Облачность Т
(С)
Тd
(С)
f
(%)
Тe
(С)
Тes
(С)
Комфортность P
(гПа)
Po
(гПа)
Тmin
(С)
Tmax
(С)
R
(мм)
R24
(мм)
S
(см)
07 12.02 З 3 н/о н/о +1.4 -3.4 70 -3 -3 1024.0 1023.0
08 12.02 З 0 н/о н/о +3.0 -3.0 65 -3 -3 1025.0 1024.0
09 12.02 0 н/о н/о +5.3 -3.6 53 1025.0 1024.0
10 12.02 З 5 н/о н/о +8.3 -2.2 48 +5 +5 1024.9 1023.9
11 12.02 З 5 н/о н/о +11.0 -2.9 38 +9 +9 1024.6 1023.6
12 12.02 С 5 н/о н/о +12.7 -3.3 33 +11 +11 1024.1 1023.1
13 12.02 С 5 н/о н/о +12.9 -4.4 30 +11 +11 1023.8 1022.8
14 12.02 З 5 н/о н/о +13.5 -5.3 27 +12 +12 1023.9 1022.9
15 12.02 З 4 н/о н/о +13.1 -4.7 29 +12 +12 1024.1 1023.1
16 12.02 З 2 н/о н/о +12.7 -5.5 28 +12 +12 1024.4 1023.4
17 12.02 З 0 н/о н/о +8.9 -5.5 36 +12 +12 1025.3 1024.3 +13.9
18 12.02 СВ 1 н/о н/о +6.7 -4.2 46 +7 +7 1026.4 1025.4
19 12.02 В 2 н/о н/о +6.3 -1.9 56 +5 +5 1027.5 1026.5
20 12.02 В 0 н/о н/о +4.7 -1.4 65 +5 +5 1028.6 1027.6
21 12.02 штиль 0 н/о н/о +3.7 -1.1 71 +3 +3 1029.8 1028.8
22 12.02 СВ 1 н/о н/о +3.1 -0.4 78 +2 +2 1030.5 1029.5
23 12.02 СВ 1 н/о н/о +3.1 -0.4 78 +2 +2 1030.5 1029.5
00 13.02 СВ 2 н/о н/о +3.3 +1.8 90 0 0 1032.2 1031.2
01 13.02 СВ 2 н/о н/о +3.7 +2.2 90 +1 +1 1032.6 1031.6
02 13.02 СВ 0 н/о н/о +3.5 +2.0 90 +1 +1 1032.8 1031.8
03 13.02 СВ 1 н/о н/о +2.7 +1.2 90 +1 +1 1033.1 1032.1
04 13.02 СВ 1 н/о н/о +1.8 +0.3 90 -0 -0 1033.6 1032.6
05 13.02 штиль 0 н/о н/о +1.4 -0.1 90 0 0 1034.2 1033.2 +1.4
06 13.02 СВ 1 н/о н/о +1.3 -0.2 90 +1 +1 1034.7 1033.7 601
07 13.02 СВ 1 н/о н/о +1.5 0.0 90 -0 -0 1035.6 1034.6
08 13.02 СВ 0 н/о н/о +3.2 +1.7 90 1036.4 1035.4
09 13.02 0 н/о н/о +5.1 +3.6 90 1037.0 1036.0
10 13.02 В 1 н/о н/о +7.6 +3.8 77 +7 +7 1037.1 1036.1
11 13.02 ЮЗ 3 н/о н/о +10.6 +1.6 54 +9 +9 1037.4 1036.4
12 13.02 Ю 3 н/о н/о +11.3 -3.0 37 +10 +10 1036.3 1035.3
13 13.02 Ю 2 н/о н/о +11.8 -2.2 38 +11 +11 1036.3 1035.3
14 13.02 ЮЗ 2 н/о н/о +12.3 -2.1 37 +12 +12 1036.0 1035.0
15 13.02 Ю 1 н/о н/о +11.8 -2.5 37 +12 +12 1035.6 1034.6
16 13.02 Ю 2 н/о н/о +11.4 -2.2 39 +11 +11 1035.6 1034.6
17 13.02 Ю 0 н/о н/о +8.8 -2.6 45 +11 +11 1036.0 1035.0 +12.4
18 13.02 штиль 0 н/о н/о +6.8 -2.7 51 +6 +6 1036.6 1035.6
19 13.02 В 1 н/о н/о +5.4 -1.2 62 +6 +6 1037.2 1036.2
20 13.02 штиль 0 н/о н/о +3.9 -1.7 67 +3 +3 1037.5 1036.5
21 13.02 штиль 0 н/о н/о +3.0 -2.0 70 +2 +2 1038.0 1037.0
22 13.02 штиль 0 н/о н/о +2.5 -1.9 73 +2 +2 1038.0 1037.0
23 13.02 штиль 0 н/о н/о +2.5 -1.9 73 +2 +2 1038.0 1037.0
00 14.02 штиль 0 н/о н/о 0.0 -2.9 81 -1 -1 1038.3 1037.3
01 14.02 штиль 0 н/о н/о -0.4 -2.6 85 -2 -2 1038.0 1037.0
02 14.02 штиль 0 н/о н/о +0.3 -1.5 88 -1 -1 1037.6 1036.6
03 14.02 З 1 н/о н/о +0.1 -1.7 88 -1 -1 1037.5 1036.5
04 14.02 штиль 0 н/о н/о -0.9 -2.5 89 -2 -2 1037.3 1036.3
05 14.02 штиль 0 н/о н/о 0.0 -1.5 90 -1 -1 1037.1 1036.1 -1.0
06 14.02 штиль 0 н/о н/о -0.2 -2.0 88 -1 -1 1036.9 1035.9 -1.0 0
07 14.02 штиль 0 н/о н/о -0.5 -2.1 89 -2 -2 1036.9 1035.9
08 14.02 штиль 0 н/о н/о +1.2 -0.6 88 0 0 1037.0 1036.0
09 14.02 0 н/о н/о +2.7 +0.7 87 1036.6 1035.6
10 14.02 З 1 н/о н/о +6.3 +3.4 82 +5 +5 1036.6 1035.6
11 14.02 З 2 н/о н/о +9.1 +3.0 66 +8 +8 1035.9 1034.9
12 14.02 З 3 н/о н/о +10.7 +2.4 56 +9 +9 1035.1 1034.1
13 14.02 З 1 н/о н/о +12.1 +2.4 51 +12 +12 1034.5 1033.5
14 14.02 З 2 н/о н/о +12.8 +2.5 49 +13 +13 1033.9 1032.9
15 14.02 З 2 н/о н/о +12.4 +2.4 50 +12 +12 1033.1 1032.1
16 14.02 штиль 0 н/о н/о +12.2 +1.7 49 +12 +12 1033.1 1032.1
17 14.02 штиль 0 н/о н/о +10.1 +1.1 54 +12 +12 1033.0 1032.0 +13.1
18 14.02 штиль 0 н/о н/о +7.1 +0.2 61 +7 +7 1033.6 1032.6
19 14.02 СВ 1 н/о н/о +7.0 +2.2 71 +7 +7 1034.0 1033.0
20 14.02 штиль 0 н/о н/о +4.9 +0.4 73 +4 +4 1033.2 1032.2
21 14.02 штиль 0 н/о н/о +4.6 +1.8 82 +4 +4 1033.2 1032.2
22 14.02 штиль 0 н/о н/о +2.7 +1.2 90 +2 +2 1033.6 1032.6
23 14.02 штиль 0 н/о н/о +2.7 +1.2 90 +2 +2 1033.6 1032.6
00 15.02 штиль 0 н/о н/о +1.3 -0.2 90 0 0 1033.9 1032.9
01 15.02 штиль 0 н/о н/о +1.1 -0.4 90 -0 -0 1033.6 1032.6
02 15.02 штиль 0 н/о н/о +0.5 -1.0 90 -1 -1 1033.1 1032.1
03 15.02 штиль 0 н/о н/о +0.3 -1.2 90 -1 -1 1033.4 1032.4
04 15.02 штиль 0 н/о н/о -0.7 -2.2 90 -2 -2 1032.8 1031.8
05 15.02 штиль 0 н/о н/о -1.1 -2.6 90 -2 -2 1033.1 1032.1 -1.5
06 15.02 штиль 0 н/о н/о -0.7 -2.2 90 -2 -2 1033.1 1032.1 0
07 15.02 штиль 0 н/о н/о -0.1 -1.6 90 -1 -1 1033.5 1032.5
08 15.02 З 1 н/о н/о +1.1 -0.4 90 -1 -1 1033.4 1032.4
09 15.02 СЗ 1 н/о н/о +3.6 +2.1 90 +2 +2 1033.3 1032.3
10 15.02 З 2 н/о н/о +6.3 +4.3 87 +4 +4 1033.2 1032.2
11 15.02 З 2 н/о н/о +8.6 +4.2 74 +7 +7 1033.1 1032.1
12 15.02 З 1 н/о н/о +11.6 +4.3 61 +12 +12 1032.3 1031.3
13 15.02 З 2 н/о н/о +13.1 +3.1 51 +13 +13 1031.6 1030.6
14 15.02 З 1 н/о н/о +13.7 +3.7 51 +14 +14 1031.0 1030.0
15 15.02 В 2 н/о н/о +13.2 +2.9 50 +13 +13 1031.2 1030.2
16 15.02 В 1 н/о н/о +12.7 +2.7 51 +13 +13 1031.3 1030.3
17 15.02 В 0 н/о н/о +10.4 +2.4 58 +13 +13 1031.8 1030.8 +14.3
18 15.02 ЮВ 1 н/о н/о +8.1 +1.4 63 +9 +9 1032.5 1031.5
19 15.02 В 1 н/о н/о +6.4 +0.9 68 +7 +7 1032.4 1031.4
20 15.02 ЮВ 1 н/о н/о +5.6 +1.1 73 +6 +6 1032.7 1031.7
21 15.02 штиль 0 н/о н/о +4.6 +1.0 77 +4 +4 1032.9 1031.9
22 15.02 штиль 0 н/о н/о +4.2 +1.4 82 +3 +3 1033.0 1032.0
23 15.02 штиль 0 н/о н/о +4.2 +1.4 82 +3 +3 1033.0 1032.0
00 16.02 штиль 0 н/о н/о +2.5 +1.0 90 +1 +1 1033.1 1032.1
01 16.02 СВ 1 н/о н/о +2.6 +1.1 90 +2 +2 1033.1 1032.1
02 16.02 штиль 0 н/о н/о +2.6 +1.1 90 +1 +1 1032.8 1031.8
03 16.02 штиль 0 н/о н/о +0.3 -1.3 89 -1 -1 1032.5 1031.5
04 16.02 штиль 0 н/о н/о -0.3 -1.8 90 -2 -2 1032.3 1031.3
05 16.02 штиль 0 н/о н/о -0.8 -2.3 90 -2 -2 1032.3 1031.3 -1.2
06 16.02 штиль 0 н/о н/о -1.3 -2.8 90 -3 -3 1032.3 1031.3 0
07 16.02 штиль 0 н/о н/о -0.7 -2.2 90 -2 -2 1032.9 1031.9
08 16.02 З 2 н/о н/о +0.8 -0.7 90 -2 -2 1033.2 1032.2
09 16.02 СВ 2 н/о н/о +2.9 +1.4 90 0 0 1033.4 1032.4
10 16.02 З 2 н/о н/о +6.5 +5.0 90 +4 +4 1033.3 1032.3
11 16.02 З 2 н/о н/о +9.4 +4.9 73 +8 +8 1033.2 1032.2
12 16.02 З 2 н/о н/о +11.8 +4.7 62 +11 +11 1032.6 1031.6
13 16.02 З 2 н/о н/о +13.7 +4.2 53 +14 +14 1031.8 1030.8
14 16.02 З 2 н/о н/о +14.4 +3.1 47 +15 +15 1031.2 1030.2
15 16.02 С 1 н/о н/о +14.1 +3.2 48 +15 +15 1030.7 1029.7
16 16.02 штиль 0 н/о н/о +14.1 +2.6 46 +14 +14 1030.2 1029.2
17 16.02 штиль 0 н/о н/о +11.6 +1.7 51 +14 +14 1030.1 1029.1 +14.7
18 16.02 штиль 0 н/о н/о +8.0 +0.6 60 +8 +8 1030.2 1029.2
19 16.02 штиль 0 н/о н/о +6.1 +1.0 70 +5 +5 1030.2 1029.2
20 16.02 штиль 0 н/о н/о +4.8 +1.1 77 +4 +4 1030.3 1029.3
21 16.02 штиль 0 н/о н/о +4.4 +1.2 80 +4 +4 1030.5 1029.5
22 16.02 штиль 0 н/о н/о +2.7 +0.6 86 +2 +2 1030.5 1029.5
23 16.02 штиль 0 н/о н/о +2.7 +0.6 86 +2 +2 1030.5 1029.5
00 17.02 штиль 0 н/о н/о +1.4 -0.1 90 0 0 1030.3 1029.3
01 17.02 штиль 0 н/о н/о +0.8 -0.7 90 -0 -0 1030.1 1029.1
02 17.02 З 1 н/о н/о +1.9 +0.4 90 +1 +1 1029.7 1028.7
03 17.02 штиль 0 н/о н/о +0.8 -0.7 90 -0 -0 1029.4 1028.4
04 17.02 ЮЗ 1 н/о н/о +1.1 -0.4 90 +1 +1 1029.5 1028.5
05 17.02 штиль 0 н/о н/о 0.0 -1.5 90 -1 -1 1029.3 1028.3 -0.3
06 17.02 штиль 0 н/о н/о +0.1 -1.4 90 -1 -1 1029.4 1028.4 0
07 17.02 штиль 0 н/о н/о +0.9 -0.6 90 -0 -0 1029.7 1028.7
08 17.02 штиль 0 н/о н/о +2.1 +0.6 90 +1 +1 1029.9 1028.9
09 17.02 0 н/о н/о +4.8 +3.3 90 1029.8 1028.8
10 17.02 0 н/о н/о +8.4 +6.7 89 1029.4 1028.4
11 17.02 З 3 н/о н/о +11.9 +5.9 67 +11 +11 1029.3 1028.3
12 17.02 З 3 н/о н/о +13.5 +5.8 60 +12 +12 1028.4 1027.4
13 17.02 З 2 н/о н/о +15.5 +5.3 51 +15 +15 1027.6 1026.6
14 17.02 СЗ 2 н/о н/о +15.8 +4.4 47 +16 +16 1027.0 1026.0
15 17.02 В 2 н/о н/о +15.6 +3.9 46 +16 +16 1026.6 1025.6
16 17.02 В 0 н/о н/о +15.2 +2.9 44 +16 +16 1026.1 1025.1
17 17.02 штиль 0 н/о н/о +12.3 +2.1 50 +12 +12 1025.9 1024.9 +16.0
18 17.02 штиль 0 н/о н/о +9.0 +1.3 58 +9 +9 1026.2 1025.2
19 17.02 штиль 0 н/о н/о +7.0 +1.6 68 +6 +6 1026.3 1025.3
20 17.02 штиль 0 н/о н/о +5.6 +1.6 75 +5 +5 1026.3 1025.3
21 17.02 штиль 0 н/о н/о +3.9 +1.2 83 +3 +3 1026.5 1025.5
22 17.02 штиль 0 н/о н/о +3.5 +1.5 87 +2 +2 1026.5 1025.5
23 17.02 штиль 0 н/о н/о +3.5 +1.5 87 +2 +2 1026.5 1025.5
00 18.02 штиль 0 н/о н/о +1.6 +0.1 90 0 0 1026.3 1025.3
01 18.02 штиль 0 н/о н/о +0.9 -0.6 90 -0 -0 1026.2 1025.2
02 18.02 З 1 н/о н/о +2.4 +0.9 90 +1 +1 1026.0 1025.0
03 18.02 З 1 н/о н/о +0.7 -0.8 90 0 0 1025.7 1024.7
04 18.02 штиль 0 н/о н/о +0.2 -1.3 90 -1 -1 1025.6 1024.6
05 18.02 Ю 1 н/о н/о 0.0 -1.5 90 -1 -1 1025.6 1024.6 -0.2
06 18.02 штиль 0 н/о н/о +0.1 -1.4 90 -1 -1 1025.5 1024.5 0
07 18.02 ЮЗ 1 н/о н/о +0.8 -0.7 90 0 0 1025.7 1024.7
08 18.02 ЮЗ 2 н/о н/о +3.4 +1.9 90 +1 +1 1025.7 1024.7
09 18.02 0 н/о н/о +6.5 +5.0 90 1025.7 1024.7
10 18.02 0 н/о н/о +9.6 +4.9 72 1025.6 1024.6
11 18.02 ЮЗ 3 н/о н/о +12.7 +5.3 61 +12 +12 1025.4 1024.4
12 18.02 З 3 н/о н/о +14.4 +4.9 53 +14 +14 1024.6 1023.6
13 18.02 СЗ 2 н/о н/о +15.5 +4.7 49 +16 +16 1023.8 1022.8
14 18.02 СВ 2 н/о н/о +15.7 +2.7 42 +16 +16 1023.2 1022.2
15 18.02 СЗ 2 н/о н/о +15.5 +2.9 43 +16 +16 1022.9 1021.9
16 18.02 СЗ 0 н/о н/о +15.0 +2.1 42 +16 +16 1022.6 1021.6
17 18.02 штиль 0 н/о н/о +12.3 +1.8 49 +12 +12 1022.4 1021.4 +16.0
18 18.02 СВ 1 н/о н/о +9.8 +2.1 59 +11 +11 1022.7 1021.7
19 18.02 штиль 0 н/о н/о +8.0 +2.0 66 +7 +7 1022.9 1021.9
20 18.02 штиль 0 н/о н/о +7.0 +3.0 76 +6 +6 1023.0 1022.0
21 18.02 штиль 0 н/о н/о +6.0 +2.8 80 +5 +5 1023.0 1022.0
22 18.02 штиль 0 н/о н/о +5.3 +2.9 84 +4 +4 1023.0 1022.0
23 18.02 штиль 0 н/о н/о +5.3 +2.9 84 +4 +4 1023.0 1022.0
00 19.02 штиль 0 н/о н/о +1.7 -0.4 86 +1 +1 1023.0 1022.0
01 19.02 штиль 0 н/о н/о +2.1 +0.6 90 +1 +1 1022.9 1021.9
02 19.02 З 1 н/о н/о +2.5 +1.0 90 +2 +2 1022.7 1021.7
03 19.02 штиль 0 н/о н/о +1.3 -0.2 90 0 0 1022.5 1021.5
04 19.02 штиль 0 н/о н/о +1.1 -0.4 90 -0 -0 1022.6 1021.6
05 19.02 З 1 н/о н/о +1.9 +0.4 90 0 0 1022.8 1021.8 +0.7
06 19.02 штиль 0 н/о н/о +1.4 -0.1 90 0 0 1022.7 1021.7 0
07 19.02 штиль 0 н/о н/о +1.0 -0.5 90 -0 -0 1023.3 1022.3
08 19.02 З 1 н/о н/о +2.7 +1.2 90 +1 +1 1023.6 1022.6

 

Местоположение метеостанции Феррара (Италия): широта 44.83 долгота 11.62 высота над уровнем моря 9 м.

В архиве по умолчанию представлена погода в Ферраре за последнюю неделю. Архивные данные за месяц целиком и за предыдущие месяцы, начиная с января 2011 года, Вы можете получить, выбрав интересующий диапазон дат из раскрывающегося списка и нажав кнопку "Ввод!".


*Определитесь, кто Вы:
робот инопланетянин человек

Внимание! Время в таблицах - всемирное. Для получения местного времени необходимо прибавить поправку, которая равна 1 ч.

Смотрите также архив погоды в соседних городах и на ближайших метеорологических станциях:

Погода в Болонье (Италия) (42 км)
Погода в Болонье (Италия) (43 км)
Погода в Пунта Марина (Италия) (68 км)
Погода в Червии (Италия) (87 км)
Погода в Венеция аэропорту (Италия) (89 км)
Погода в Венеции (Италия) (93 км)
Погода на Монте Симон (Италия) (101 км)
Погода в Тревизо (Италия) (101 км)
Погода в Тревизо аэропорту (Италия) (102 км)
Погода в Римини (Италия) (119 км)

Пояснения к столбцам:

Ветер - указаны скорость ветра в м/с - средняя за 10 мин, порывы в срок и между сроками (в фигурных скобках) и направление, откуда дует ветер: С - северный, СВ - северо-восточный, В - восточный, ЮВ - юго-восточный, Ю - южный, ЮЗ - юго-западный, З - западный, СЗ - северо-западный.
Видимость - горизонтальная дальность видимости в метрах или километрах. При видимости от 1 до 10 км при отсутствии осадков обычно наблюдается дымка, при ухудшении видимости до 1 км и менее - туман. В сухую погоду видимость может ухудшаться дымом, пылью или мглою.
Явления - указаны атмосферные явления, наблюдавшиеся в срок или в последний час перед сроком; фигурными скобками обозначены явления, наблюдавшиеся между сроками (за 1-3 часа до срока); квадратными скобками обозначены град или гололедные отложения с указанием их диаметра в мм.
Облачность - указаны через наклонную черту общая и нижняя облачность в баллах и высота нижней границы облаков в метрах; квадратными скобками обозначены формы облаков: Ci - перистые, Cs - перисто-слоистые, Cc - перисто-кучевые, Ac - высококучевые, As - высокослоистые, Sc - слоисто-кучевые, Ns - слоисто-дождевые, Cu - кучевые, Cb - кучево-дождевые. Подробнее классификацию облаков см. в Атласе облаков (PDF).
T - Температура воздуха - температура, измеренная на высоте 2 м над землей.
Td - Температура точки росы - температура, при понижении до которой содержащийся в воздухе водяной пар достигнет насыщения.
f - Относительная влажность воздуха - влажноcть воздуха, измеренная на высоте 2 м над землей.
Te - Эффективная температура - температура, которую ощущает одетый по сезону человек в тени. Характеристика душности погоды. При расчете учитывается влияние влажности воздуха и скорости ветра на теплоощущения человека.
Tes - Эффективная температура на солнце - температура, которую ощущает человек, с поправкой на солнечный нагрев. Характеристика знойности погоды. Зависит от высоты солнца над горизонтом, облачности и скорости ветра. Ночью, в пасмурную погоду, а также при ветре 12 м/с и более поправка равна нулю.
P - Атмосферное давление - приведенное к уровню моря атмосферное давление.
Po - Атмосферное давление - измеренное на уровне метеостанции атмосферное давление.
Tmin - Минимальная температура - минимум температуры воздуха на высоте 2 м над землей.
Tmax - Максимальная температура - максимум температуры воздуха на высоте 2 м над землей.
R - Количество осадков - Количество выпавших осадков за период времени, мм. При наведении курсора мыши на число - период времени, за который выпало указанное количество осадков.
R24 - Количество осадков - Количество выпавших осадков за 24 часа, мм.
S - Снежный покров - Высота снежного покрова, см. При наведении курсора мыши на число - состояние снежного покрова и степень покрытия местности в баллах.